Weather History for Altus, OK

Change the Weather History Date:

Sunday, January 15, 2012

  Actual Average (KLTS) Record (KLTS)
Temperature  
Mean Temperature 48 °F -  
Max Temperature 68 °F 49 °F 68 °F (1999)
Min Temperature 28 °F 26 °F 14 °F (2009)
Degree Days  
Heating Degree Days 17    
Moisture  
Dew Point 29 °F    
Average Humidity 55    
Maximum Humidity 81    
Minimum Humidity 24    
Precipitation  
Precipitation 0.00 in - - ()
Sea Level Pressure  
Sea Level Pressure 30.06 in    
Wind  
Wind Speed 9 mph (SSE)    
Max Wind Speed 24 mph    
Max Gust Speed 29 mph    
Visibility 10 miles    
Events      
Averages and records for this station are not official NWS values.
T = Trace of Precipitation, MM = Missing Value Source: NWS Daily Summary

Daily Weather History Graph

Daily Weather History Graph

Search for Another Location

Airport:

Trip Planner

Search our weather history database for the weather conditions in past years. The results will help you decide how hot, cold, wet, or windy it might be!

Date:

Astronomy

Jan. 15, 2012 Rise Set
Actual Time 7:44 AM CST 5:49 PM CST
Civil Twilight 7:16 AM CST 6:16 PM CST
Nautical Twilight 6:45 AM CST 6:47 PM CST
Astronomical Twilight 6:15 AM CST 7:18 PM CST
Moon No Moon Rise 11:22 AM CST (1/15)
Length of Visible Light 10h 59m
Length of Day
10h 05m
Waning Gibbous, 57% of the Moon is Illuminated
Jan 15
Waning Gibbous
Jan 16
Last Quarter
Jan 23
New
Jan 30
First Quarter
Feb 7
Full

Hourly Weather History & Observations

Time (CST) Temp. Windchill Dew Point Humidity Pressure Visibility Wind Dir Wind Speed Gust Speed Precip Events Conditions
12:15 AM 35.6 °F 30.7 °F 26.6 °F 70% 30.21 in 10.0 mi ESE 5.8 mph - N/A   Clear
12:35 AM 33.8 °F 28.6 °F 26.6 °F 75% 30.20 in 10.0 mi ESE 5.8 mph - N/A   Clear
12:55 AM 35.6 °F 29.9 °F 26.6 °F 70% 30.19 in 10.0 mi ESE 6.9 mph - N/A   Clear
1:15 AM 33.8 °F 26.4 °F 26.6 °F 75% 30.18 in 10.0 mi East 9.2 mph - N/A   Clear
1:35 AM 35.6 °F 28.6 °F 26.6 °F 70% 30.18 in 10.0 mi ESE 9.2 mph - N/A   Clear
1:55 AM 33.8 °F 26.4 °F 26.6 °F 75% 30.17 in 10.0 mi ESE 9.2 mph - N/A   Clear
2:15 AM 33.8 °F 28.6 °F 26.6 °F 75% 30.17 in 10.0 mi ESE 5.8 mph - N/A   Clear
2:35 AM 32.0 °F 27.5 °F 24.8 °F 75% 30.17 in 10.0 mi SE 4.6 mph - N/A   Clear
2:55 AM 32.0 °F 26.4 °F 24.8 °F 75% 30.16 in 10.0 mi SE 5.8 mph - N/A   Clear
3:35 AM 32.0 °F 24.8 °F 24.8 °F 75% 30.16 in 10.0 mi SE 8.1 mph - N/A   Clear
4:15 AM 32.0 °F 26.4 °F 24.8 °F 75% 30.15 in 10.0 mi SSE 5.8 mph - N/A   Clear
4:35 AM 32.0 °F 28.7 °F 26.6 °F 80% 30.15 in 10.0 mi South 3.5 mph - N/A   Clear
4:55 AM 32.0 °F - 24.8 °F 75% 30.15 in 10.0 mi Calm Calm - N/A   Clear
5:15 AM 30.2 °F - 23.0 °F 75% 30.14 in 10.0 mi Calm Calm - N/A   Clear
5:35 AM 30.2 °F - 24.8 °F 80% 30.14 in 10.0 mi Calm Calm - N/A   Clear
5:55 AM 30.2 °F - 24.8 °F 80% 30.13 in 10.0 mi Calm Calm - N/A   Clear
6:15 AM 30.2 °F 23.4 °F 24.8 °F 80% 30.15 in 10.0 mi SE 6.9 mph - N/A   Clear
6:35 AM 28.4 °F 23.3 °F 23.0 °F 80% 30.14 in 10.0 mi SE 4.6 mph - N/A   Clear
6:55 AM 28.4 °F 23.3 °F 23.0 °F 80% 30.14 in 10.0 mi SE 4.6 mph - N/A   Clear
7:15 AM 28.4 °F 22.2 °F 23.0 °F 80% 30.15 in 10.0 mi SSE 5.8 mph - N/A   Clear
7:35 AM 30.2 °F 23.4 °F 24.8 °F 80% 30.14 in 10.0 mi SSE 6.9 mph - N/A   Clear
7:55 AM 30.2 °F 24.3 °F 24.8 °F 80% 30.14 in 10.0 mi SE 5.8 mph - N/A   Clear
8:15 AM 30.2 °F 22.6 °F 24.8 °F 80% 30.13 in 10.0 mi SE 8.1 mph - N/A   Clear
8:35 AM 30.2 °F 23.4 °F 24.8 °F 80% 30.13 in 10.0 mi SE 6.9 mph - N/A   Clear
8:55 AM 32.0 °F 24.8 °F 26.6 °F 80% 30.14 in 10.0 mi SSE 8.1 mph - N/A   Clear
9:15 AM 33.8 °F 27.0 °F 28.4 °F 81% 30.13 in 10.0 mi SE 8.1 mph - N/A   Clear
9:35 AM 33.8 °F 28.6 °F 28.4 °F 81% 30.13 in 10.0 mi SE 5.8 mph - N/A   Clear
9:55 AM 37.4 °F 32.1 °F 30.2 °F 75% 30.14 in 10.0 mi SE 6.9 mph - N/A   Clear
10:15 AM 41.0 °F 37.1 °F 30.2 °F 65% 30.13 in 10.0 mi SE 5.8 mph - N/A   Clear
10:35 AM 42.8 °F 38.0 °F 32.0 °F 66% 30.13 in 10.0 mi SSE 8.1 mph - N/A   Clear
10:55 AM 44.6 °F 39.2 °F 30.2 °F 57% 30.12 in 10.0 mi South 10.4 mph - N/A   Clear
11:15 AM 48.2 °F - 30.2 °F 50% 30.11 in 10.0 mi South 10.4 mph - N/A   Clear
11:35 AM 51.8 °F - 30.2 °F 44% 30.09 in 10.0 mi South 15.0 mph - N/A   Clear
11:55 AM 55.4 °F - 30.2 °F 38% 30.08 in 10.0 mi SSW 15.0 mph - N/A   Clear
12:15 PM 59.0 °F - 30.2 °F 34% 30.06 in 10.0 mi South 16.1 mph - N/A   Clear
12:35 PM 59.0 °F - 28.4 °F 31% 30.05 in 10.0 mi South 15.0 mph - N/A   Clear
12:55 PM 55.4 °F - 28.4 °F 36% 30.03 in 10.0 mi South 15.0 mph 21.9 mph N/A   Clear
1:15 PM 59.0 °F - 30.2 °F 34% 30.02 in 10.0 mi South 17.3 mph 20.7 mph N/A   Clear
1:35 PM 60.8 °F - 28.4 °F 29% 30.00 in 10.0 mi South 18.4 mph 25.3 mph N/A   Clear
1:55 PM 60.8 °F - 30.2 °F 31% 29.98 in 10.0 mi South 20.7 mph 25.3 mph N/A   Clear
2:15 PM 62.6 °F - 30.2 °F 30% 29.97 in 10.0 mi South 17.3 mph - N/A   Clear
2:35 PM 64.4 °F - 30.2 °F 28% 29.96 in 10.0 mi South 19.6 mph 24.2 mph N/A   Clear
2:55 PM 64.4 °F - 30.2 °F 28% 29.94 in 10.0 mi South 24.2 mph - N/A   Clear
3:15 PM 64.4 °F - 30.2 °F 28% 29.93 in 10.0 mi South 23.0 mph 28.8 mph N/A   Clear
3:35 PM 66.2 °F - 32.0 °F 28% 29.94 in 10.0 mi South 23.0 mph 28.8 mph N/A   Clear
3:55 PM 66.2 °F - 32.0 °F 28% 29.93 in 10.0 mi South 20.7 mph 27.6 mph N/A   Clear
4:15 PM 68.0 °F - 32.0 °F 26% 29.92 in 10.0 mi South 18.4 mph - N/A   Clear
4:35 PM 68.0 °F - 32.0 °F 26% 29.91 in 10.0 mi South 21.9 mph 27.6 mph N/A   Clear
4:55 PM 68.0 °F - 30.2 °F 24% 29.91 in 10.0 mi South 19.6 mph - N/A   Clear
5:15 PM 66.2 °F - 32.0 °F 28% 29.91 in 10.0 mi South 19.6 mph - N/A   Clear
5:35 PM 64.4 °F - 32.0 °F 30% 29.90 in 10.0 mi South 19.6 mph 25.3 mph N/A   Clear
5:55 PM 62.6 °F - 32.0 °F 32% 29.90 in 10.0 mi South 19.6 mph - N/A   Clear
6:15 PM 62.6 °F - 32.0 °F 32% 29.89 in 10.0 mi South 18.4 mph - N/A   Clear
6:35 PM 60.8 °F - 32.0 °F 34% 29.90 in 10.0 mi SSE 16.1 mph - N/A   Clear
6:55 PM 59.0 °F - 33.8 °F 39% 29.90 in 10.0 mi SSE 15.0 mph - N/A   Clear
7:15 PM 57.2 °F - 35.6 °F 44% 29.90 in 10.0 mi SSE 15.0 mph - N/A   Clear
7:35 PM 59.0 °F - 35.6 °F 42% 29.91 in 10.0 mi South 17.3 mph - N/A   Clear
7:55 PM 57.2 °F - 35.6 °F 44% 29.91 in 10.0 mi South 16.1 mph - N/A   Clear
8:15 PM 59.0 °F - 35.6 °F 42% 29.91 in 10.0 mi South 19.6 mph - N/A   Clear
8:35 PM 59.0 °F - 33.8 °F 39% 29.91 in 10.0 mi South 19.6 mph 25.3 mph N/A   Clear
8:55 PM 59.0 °F - 35.6 °F 42% 29.91 in 10.0 mi South 19.6 mph - N/A   Clear
9:15 PM 57.2 °F - 35.6 °F 44% 29.91 in 10.0 mi South 18.4 mph - N/A   Clear
9:35 PM 55.4 °F - 35.6 °F 47% 29.91 in 10.0 mi South 16.1 mph - N/A   Clear
9:55 PM 55.4 °F - 35.6 °F 47% 29.91 in 10.0 mi South 17.3 mph - N/A   Clear
10:15 PM 53.6 °F - 35.6 °F 51% 29.92 in 10.0 mi South 16.1 mph - N/A   Clear
10:35 PM 55.4 °F - 35.6 °F 47% 29.92 in 10.0 mi SSW 19.6 mph - N/A   Clear
10:55 PM 55.4 °F - 35.6 °F 47% 29.91 in 10.0 mi SSW 21.9 mph - N/A   Clear
11:15 PM 55.4 °F - 37.4 °F 51% 29.91 in 10.0 mi SSW 25.3 mph 29.9 mph N/A   Clear
11:35 PM 55.4 °F - 39.2 °F 54% 29.92 in 10.0 mi SSW 24.2 mph - N/A   Clear
11:55 PM 57.2 °F - 41.0 °F 55% 29.92 in 10.0 mi SSW 24.2 mph 28.8 mph N/A   Clear